Weather History for Pensacola NAS, FL

Change the Weather History Date:

Saturday, December 22, 2012

  Actual Average Record
Temperature  
Mean Temperature 45 °F -  
Max Temperature 62 °F 59 °F 77 °F (2013)
Min Temperature 28 °F 40 °F 28 °F (2012)
Degree Days  
Heating Degree Days 20    
Moisture  
Dew Point 30 °F    
Average Humidity 65    
Maximum Humidity 100    
Minimum Humidity 25    
Precipitation  
Precipitation 0.00 in - - ()
Sea Level Pressure  
Sea Level Pressure 30.33 in    
Wind  
Wind Speed 3 mph (NNW)    
Max Wind Speed 8 mph    
Max Gust Speed -    
Visibility 10 miles    
Events Rain    
Averages and records for this station are not official NWS values.
T = Trace of Precipitation, MM = Missing Value Source: NWS Daily Summary

Daily Weather History Graph

Daily Weather History Graph

Search for Another Location

Airport:

Trip Planner

Search our weather history database for the weather conditions in past years. The results will help you decide how hot, cold, wet, or windy it might be!

Date:

Astronomy

Dec. 22, 2012 Rise Set
Actual Time 6:42 AM CST 4:53 PM CST
Civil Twilight 6:16 AM CST 5:20 PM CST
Nautical Twilight 5:46 AM CST 5:50 PM CST
Astronomical Twilight 5:16 AM CST 6:19 PM CST
Moon 1:00 PM CST (12/22) 1:40 AM CST (12/22)
Length of Visible Light 11h 04m
Length of Day
10h 11m
Waxing Gibbous, 74% of the Moon is Illuminated
Dec 22
Waxing Gibbous
Dec 28
Full
Jan 4
Last Quarter
Jan 11
New
Jan 18
First Quarter

Hourly Weather History & Observations

Time (CST) Temp. Windchill Dew Point Humidity Pressure Visibility Wind Dir Wind Speed Gust Speed Precip Events Conditions
12:56 AM 39.0 °F 34.0 °F 25.0 °F 57% 30.33 in 10.0 mi North 6.9 mph - N/A   Clear
1:56 AM 37.0 °F 32.4 °F 24.1 °F 59% 30.34 in 10.0 mi NNW 5.8 mph - N/A   Clear
2:56 AM 36.0 °F 33.3 °F 25.0 °F 64% 30.35 in 10.0 mi NW 3.5 mph - N/A   Clear
3:56 AM 35.1 °F 32.2 °F 24.1 °F 64% 30.35 in 10.0 mi WNW 3.5 mph - N/A   Clear
4:56 AM 30.9 °F - 25.0 °F 79% 30.35 in 10.0 mi Calm Calm - N/A   Clear
5:56 AM 32.0 °F - 25.0 °F 75% 30.37 in 10.0 mi Calm Calm - N/A   Clear
6:56 AM 28.9 °F - 26.1 °F 89% 30.38 in 10.0 mi Calm Calm - N/A   Clear
7:56 AM 39.0 °F - 30.0 °F 70% 30.40 in 10.0 mi Calm Calm - N/A   Clear
8:56 AM 44.1 °F 41.5 °F 26.1 °F 49% 30.42 in 10.0 mi North 4.6 mph - N/A   Clear
9:56 AM 50.0 °F - 26.1 °F 39% 30.42 in 10.0 mi North 8.1 mph - N/A   Clear
10:56 AM 54.0 °F - 25.0 °F 33% 30.38 in 10.0 mi North 5.8 mph - N/A   Partly Cloudy
11:56 AM 55.9 °F - 26.1 °F 32% 30.35 in 10.0 mi NNW 5.8 mph - N/A   Partly Cloudy
12:56 PM 59.0 °F - 27.0 °F 29% 30.32 in 10.0 mi Variable 3.5 mph - N/A   Partly Cloudy
1:56 PM 61.0 °F - 26.1 °F 26% 30.30 in 10.0 mi NNW 5.8 mph - N/A   Partly Cloudy
2:56 PM 62.1 °F - 26.1 °F 25% 30.29 in 10.0 mi North 3.5 mph - N/A   Partly Cloudy
3:56 PM 57.9 °F - 30.9 °F 36% 30.28 in 10.0 mi SSE 3.5 mph - N/A   Scattered Clouds
4:56 PM 52.0 °F - 35.1 °F 53% 30.29 in 10.0 mi SSW 3.5 mph - N/A   Partly Cloudy
5:30 PM 44.6 °F - 37.4 °F 76% 30.29 in 10.0 mi Calm Calm - N/A   Partly Cloudy
5:56 PM 44.1 °F - 37.0 °F 76% 30.29 in 10.0 mi Calm Calm - N/A   Partly Cloudy
6:56 PM 39.0 °F - 36.0 °F 89% 30.29 in 10.0 mi Calm Calm - N/A   Clear
7:56 PM 37.0 °F - 36.0 °F 96% 30.29 in 10.0 mi Calm Calm - N/A   Clear
8:56 PM 36.0 °F - 35.1 °F 97% 30.29 in 10.0 mi Calm Calm - 0.00 in   Clear
9:56 PM 34.0 °F - 34.0 °F 100% 30.29 in 10.0 mi Calm Calm - N/A   Clear
10:33 PM 35.6 °F - 33.8 °F 93% 30.28 in 10.0 mi Calm Calm - 0.00 in Rain Light Freezing Rain
10:56 PM 36.0 °F - 35.1 °F 97% 30.28 in 10.0 mi Calm Calm - 0.00 in   Clear
11:56 PM 35.1 °F - 35.1 °F 100% 30.27 in 9.0 mi Calm Calm - 0.00 in Rain Light Rain